Terminal Aerodrome Forecast
Issued by NWS Chicago, IL

Home | Current Version | Previous Version | Graphics & Text | Print | Product List | Glossary On
Versions: 1 2 3 4 5 6 7 8 9 10 11 12 13 14 15 16 17 18 19 20 21 22 23 24 25 26 27 28 29 30 31 32 33 34 35 36 37 38
000
FTUS43 KLOT 220400 AAB
TAFRFD
TAF AMD
KRFD 220435Z 2205/2224 VRB04KT 5SM BR VCTS BKN035CB OVC060
     FM220700 17004KT 4SM BR VCTS SCT007 BKN040CB BKN100
     FM221100 15004KT 3SM BR SCT010 BKN030
     FM221500 24005KT P6SM SCT040 BKN100 PROB30 2220/2222 4SM TSRA
      OVC040CB=

USA.gov is the U.S. government's official web portal to all federal, state and local government web resources and services.